Cortez, CO

10:36 AM MST on November 15, 2019 (GMT -0700)
Cortez Municipal

Weather History for KCEZ - September, 2019

Change the Weather History Date:

Tuesday, September 3, 2019

  Actual Average Record
Temperature  
Mean Temperature 74 °F 65 °F  
Max Temperature 96 °F 82 °F 96 °F (2019)
Min Temperature 52 °F 48 °F 43 °F (2010)
Degree Days  
Heating Degree Days 0 2  
Month to date heating degree days 0 5  
Since 1 July heating degree days 0 17  
Cooling Degree Days 9 2  
Month to date cooling degree days 22 6  
Year to date cooling degree days 502 415  
Growing Degree Days 24 (Base 50)    
Moisture  
Dew Point 42 °F    
Average Humidity 37    
Maximum Humidity 59    
Minimum Humidity 14    
Precipitation  
Precipitation 0.00 in 0.05 in 0.43 in (2007)
Month to date precipitation 0.00 0.14  
Year to date precipitation 9.78 8.58  
Sea Level Pressure  
Sea Level Pressure 29.98 in    
Wind  
Wind Speed 6 mph (East)    
Max Wind Speed 26 mph    
Max Gust Speed 38 mph    
Visibility 10 miles    
Events Thunderstorm    
T = Trace of Precipitation, MM = Missing Value Source: NWS Daily Summary

Daily Weather History Graph

Daily Weather History Graph

Search for Another Location

Airport or City:

Astronomy

Sep. 03, 2019 Rise Set
Actual Time 6:46 AM MDT 7:40 PM MDT
Civil Twilight 6:19 AM MDT 8:07 PM MDT
Nautical Twilight 5:48 AM MDT 8:38 PM MDT
Astronomical Twilight 5:15 AM MDT 9:11 PM MDT
Moon 11:36 AM MDT (9/3) 10:46 PM MDT (9/3)
Length of Visible Light 13h 47m
Length of Day
12h 54m
Waxing Crescent, 25% of the Moon is Illuminated
Sep 3
Waxing Crescent
Sep 5
First Quarter
Sep 13
Full
Sep 21
Last Quarter
Sep 28
New

Hourly Weather History & Observations

Time (MDT) Temp. Dew Point Humidity Pressure Visibility Wind Dir Wind Speed Gust Speed Precip Events Conditions
12:53 AM 59.0 °F 42.1 °F 53% 29.99 in 10.0 mi East 8.1 mph - N/A   Clear
1:53 AM 57.9 °F 42.1 °F 56% 29.99 in 10.0 mi East 6.9 mph - N/A   Clear
2:53 AM 57.9 °F 42.1 °F 56% 29.99 in 10.0 mi East 3.5 mph - N/A   Clear
3:53 AM 57.0 °F 41.0 °F 55% 29.99 in 10.0 mi ENE 6.9 mph - N/A   Clear
4:53 AM 55.0 °F 41.0 °F 59% 30.02 in 10.0 mi East 3.5 mph - N/A   Clear
5:53 AM 55.0 °F 41.0 °F 59% 30.02 in 10.0 mi ENE 4.6 mph - N/A   Clear
6:53 AM 53.1 °F 39.9 °F 61% 30.04 in 10.0 mi East 4.6 mph - N/A   Clear
7:53 AM 61.0 °F 43.0 °F 52% 30.05 in 10.0 mi Calm Calm - N/A   Clear
8:53 AM 66.9 °F 44.1 °F 44% 30.06 in 10.0 mi SSE 3.5 mph - N/A   Clear
9:53 AM 73.9 °F 44.1 °F 34% 30.04 in 10.0 mi Calm Calm - N/A   Clear
10:53 AM 81.0 °F 46.0 °F 29% 29.99 in 10.0 mi Calm Calm - N/A   Clear
11:53 AM 87.1 °F 46.9 °F 25% 29.98 in 10.0 mi SE 6.9 mph - N/A   Clear
12:53 PM 90.0 °F 46.0 °F 22% 29.95 in 10.0 mi SSW 8.1 mph - N/A   Clear
1:53 PM 91.9 °F 42.1 °F 18% 29.92 in 10.0 mi SSW 4.6 mph - N/A   Clear
2:53 PM 93.9 °F 39.9 °F 15% 29.89 in 10.0 mi SSW 10.4 mph 16.1 mph N/A   Clear
3:46 PM 96.1 °F 41.0 °F 15% 30.14 in 10.0 mi Variable 5.8 mph - N/A Thunderstorm Clear
3:53 PM 95.0 °F 39.0 °F 14% 29.88 in 10.0 mi Calm Calm - N/A Thunderstorm Clear
4:07 PM 91.9 °F 41.0 °F 17% 30.15 in 9.0 mi ESE 19.6 mph 36.8 mph N/A   Mostly Cloudy
4:53 PM 90.0 °F 41.0 °F 18% 29.91 in 10.0 mi NE 16.1 mph 24.2 mph N/A   Clear
5:53 PM 89.1 °F 39.0 °F 17% 29.91 in 10.0 mi NE 9.2 mph - N/A   Clear
6:53 PM 84.9 °F 39.0 °F 20% 29.93 in 10.0 mi East 15.0 mph 23.0 mph N/A   Clear
7:53 PM 79.0 °F 41.0 °F 26% 29.94 in 10.0 mi NNE 5.8 mph - N/A   Clear
8:53 PM 72.0 °F 45.0 °F 38% 29.95 in 10.0 mi ENE 5.8 mph - N/A   Clear
9:53 PM 70.0 °F 46.9 °F 44% 29.95 in 10.0 mi Calm Calm - N/A   Clear
10:53 PM 72.0 °F 44.1 °F 37% 29.92 in 10.0 mi Variable 3.5 mph - N/A   Clear
11:53 PM 66.0 °F 43.0 °F 43% 29.93 in 10.0 mi North - - N/A   Clear